Dushanbe, Tajikistan

9:32 PM +05 on July 21, 2017 (GMT +0500)
Dushanbe

Weather History for UTDD - July, 2017

Change the Weather History Date:

Monday, July 17, 2017

  Actual Average Record
Temperature  
Mean Temperature 80 °F -  
Max Temperature 95 °F - - ()
Min Temperature 65 °F - - ()
Cooling Degree Days 15    
Growing Degree Days 30 (Base 50)    
Moisture  
Dew Point 51 °F    
Average Humidity 35    
Maximum Humidity 60    
Minimum Humidity 14    
Precipitation  
Precipitation 0.00 in 0.00 in - ()
Sea Level Pressure  
Sea Level Pressure 29.82 in    
Wind  
Wind Speed 4 mph ()    
Max Wind Speed 11 mph    
Max Gust Speed -    
Visibility 6.1 miles    
Events      
T = Trace of Precipitation, MM = Missing Value Source: Averaged Metar Reports

Daily Weather History Graph

Daily Weather History Graph

Search for Another Location

Airport or City:

Trip Planner

Search our weather history database for the weather conditions in past years. The results will help you decide how hot, cold, wet, or windy it might be!

Date:

Astronomy

Jul. 17, 2017 Rise Set
Actual Time 5:14 AM +05 7:47 PM +05
Civil Twilight 4:43 AM +05 8:18 PM +05
Nautical Twilight 4:05 AM +05 8:56 PM +05
Astronomical Twilight 3:22 AM +05 9:38 PM +05
Moon 12:05 AM +05 (7/17) 1:11 PM +05 (7/17)
Length of Visible Light 15h 34m
Length of Day
14h 33m
Last Quarter, 45% of the Moon is Illuminated
Jul 17
Last Quarter
Jul 23
New
Jul 30
First Quarter
Aug 7
Full
Aug 15
Last Quarter

Hourly Weather History & Observations

Time (+05) Temp. Heat Index Dew Point Humidity Pressure Visibility Wind Dir Wind Speed Gust Speed Precip Events Conditions
12:00 AM 77.0 °F - 53.6 °F 44% 29.83 in 6.2 mi ESE 4.5 mph - N/A   Unknown
12:30 AM 73.4 °F - 55.4 °F 53% 29.83 in 5.0 mi East 6.7 mph - N/A   Unknown
1:00 AM 75.2 °F - 53.6 °F 47% 29.83 in 5.0 mi Variable 4.5 mph - N/A   Unknown
1:30 AM 77.0 °F - 51.8 °F 41% 29.83 in 6.2 mi NE 4.5 mph - N/A   Partly Cloudy
2:00 AM 75 °F - 58 °F 46% 29.57 in - Calm Calm - -   Scattered Clouds
2:00 AM 71.6 °F - 55.4 °F 57% 29.83 in 5.6 mi East 6.7 mph - N/A   Mostly Cloudy
2:30 AM 77.0 °F - 50.0 °F 39% 29.83 in 6.2 mi NE 4.5 mph - N/A   Scattered Clouds
3:00 AM 73.4 °F - 55.4 °F 53% 29.83 in 6.2 mi East 4.5 mph - N/A   Scattered Clouds
3:30 AM 71.6 °F - 55.4 °F 57% 29.86 in 6.2 mi Variable 2.2 mph - N/A   Scattered Clouds
4:00 AM 71.6 °F - 57.2 °F 60% 29.86 in 6.2 mi East 4.5 mph - N/A   Mostly Cloudy
4:30 AM 71.6 °F - 55.4 °F 57% 29.86 in 6.2 mi East 2.2 mph - N/A   Scattered Clouds
5:00 AM 69 °F - 55 °F 52% 29.64 in 1 mi Calm Calm - -   Partly Cloudy
5:00 AM 71.6 °F - 55.4 °F 57% 29.86 in 6.2 mi East 4.5 mph - N/A   Partly Cloudy
5:30 AM 75.2 °F - 53.6 °F 47% 29.86 in 6.2 mi Variable 4.5 mph - N/A   Scattered Clouds
6:00 AM 73.4 °F - 55.4 °F 53% 29.89 in 6.2 mi Calm Calm - N/A   Scattered Clouds
6:30 AM 75.2 °F - 57.2 °F 53% 29.89 in 6.2 mi Calm Calm - N/A   Mostly Cloudy
7:00 AM 75.2 °F - 55.4 °F 50% 29.89 in 6.2 mi East 4.5 mph - N/A   Mostly Cloudy
7:30 AM 77.0 °F - 55.4 °F 47% 29.92 in 4.3 mi Variable 4.5 mph - N/A   Mostly Cloudy
8:00 AM 76 °F - 55 °F 38% 29.64 in 12 mi Calm Calm - -   Partly Cloudy
8:00 AM 77.0 °F - 55.4 °F 47% 29.92 in 6.2 mi Variable 2.2 mph - N/A   Mostly Cloudy
8:30 AM 80.6 °F 80.5 °F 55.4 °F 42% 29.92 in 6.2 mi Variable 2.2 mph - N/A   Scattered Clouds
9:00 AM 80.6 °F 80.3 °F 53.6 °F 39% 29.92 in 6.2 mi Variable 4.5 mph - N/A   Scattered Clouds
9:30 AM 84.2 °F 82.8 °F 53.6 °F 35% 29.92 in 6.2 mi Variable 2.2 mph - N/A   Scattered Clouds
10:00 AM 86.0 °F - 51.8 °F 31% 29.92 in 6.2 mi Variable 4.5 mph - N/A   Partly Cloudy
10:30 AM 87.8 °F - 50.0 °F 27% 29.92 in 6.2 mi Variable 2.2 mph - N/A   Partly Cloudy
11:00 AM 87 °F - 51 °F 19% 29.58 in 31 mi SW 4.5 mph - -   Scattered Clouds
11:00 AM 87.8 °F - 44.6 °F 22% 29.92 in 6.2 mi Variable 4.5 mph - N/A   Partly Cloudy
11:30 AM 89.6 °F - 46.4 °F 22% 29.92 in 6.2 mi Variable 4.5 mph - N/A   Partly Cloudy
12:00 PM 89.6 °F - 46.4 °F 22% 29.92 in 6.2 mi Variable 4.5 mph - N/A   Partly Cloudy
12:30 PM 89.6 °F - 48.2 °F 24% 29.89 in 6.2 mi Variable 4.5 mph - N/A   Partly Cloudy
1:00 PM 91.4 °F - 46.4 °F 21% 29.89 in 6.2 mi Variable 2.2 mph - N/A   Partly Cloudy
1:30 PM 91.4 °F - 44.6 °F 20% 29.89 in 6.2 mi Variable 4.5 mph - N/A   Partly Cloudy
2:00 PM 91 °F - 53 °F 18% 29.52 in 31 mi East 4.5 mph - -   Clear
2:00 PM 91.4 °F - 44.6 °F 20% 29.86 in 6.2 mi SW 6.7 mph - N/A   Partly Cloudy
2:30 PM 93.2 °F - 44.6 °F 19% 29.86 in 6.2 mi Variable 2.2 mph - N/A   Partly Cloudy
3:00 PM 93.2 °F - 44.6 °F 19% 29.86 in 6.2 mi Variable 4.5 mph - N/A   Partly Cloudy
3:30 PM 93.2 °F - 44.6 °F 19% 29.86 in 6.2 mi Variable 4.5 mph - N/A   Partly Cloudy
4:00 PM 93.2 °F - 46.4 °F 20% 29.83 in 6.2 mi SSW 6.7 mph - N/A   Partly Cloudy
4:30 PM 93.2 °F - 48.2 °F 21% 29.83 in 6.2 mi Variable 4.5 mph - N/A   Unknown
5:00 PM 93 °F - 50 °F 14% 29.46 in 31 mi SW 4.5 mph - -   Clear
5:00 PM 91.4 °F - 50.0 °F 24% 29.83 in 6.2 mi West 11.2 mph - N/A   Unknown
5:30 PM 91.4 °F - 50.0 °F 24% 29.83 in 6.2 mi West 11.2 mph - N/A   Unknown
6:00 PM 89.6 °F - 50.0 °F 26% 29.80 in 6.2 mi West 11.2 mph - N/A   Unknown
6:30 PM 87.8 °F - 50.0 °F 27% 29.83 in 6.2 mi West 11.2 mph - N/A   Unknown
7:00 PM 86.0 °F - 46.4 °F 25% 29.83 in 6.2 mi West 11.2 mph - N/A   Unknown
7:30 PM 86.0 °F - 46.4 °F 25% 29.83 in 6.2 mi WNW 11.2 mph - N/A   Unknown
8:00 PM 83 °F - 47 °F 19% 29.52 in 6 mi Calm Calm - -   Scattered Clouds
8:00 PM 84.2 °F - 48.2 °F 29% 29.83 in 6.2 mi WNW 8.9 mph - N/A   Unknown
8:30 PM 84.2 °F - 46.4 °F 27% 29.83 in 6.2 mi Variable 2.2 mph - N/A   Unknown
9:00 PM 78.8 °F - 50.0 °F 36% 29.86 in 6.2 mi SSE 6.7 mph - N/A   Unknown
9:30 PM 77.0 °F - 51.8 °F 41% 29.86 in 6.2 mi Variable 2.2 mph - N/A   Unknown
10:00 PM 78.8 °F - 51.8 °F 39% 29.86 in 6.2 mi Variable 2.2 mph - N/A   Unknown
10:30 PM 77.0 °F - 50.0 °F 39% 29.86 in 6.2 mi ENE 6.7 mph - N/A   Unknown
11:00 PM 73 °F - 54 °F 41% 29.60 in - Calm Calm - -  
11:00 PM 77.0 °F - 48.2 °F 36% 29.86 in 6.2 mi NE 4.5 mph - N/A   Unknown
11:30 PM 75.2 °F - 48.2 °F 38% 29.89 in 6.2 mi Variable 4.5 mph - N/A   Unknown